Content
SEND FEEDBACK

Daily
Averages
Monthly
Summary
Mexico

CANCUN, QUINTANA ROO


Home > North America > Mexico > Quintana Roo
Elevation: 30 feet     Latitude: 21 09N     Longitude: 086 49W

WEATHER
 
SELECT A DAY
Number of Records: 163,905;   Date Range: 1/1/95 - 8/10/14
 
SHARE

PRINT THIS DATA

[ ← Previous Day ]
WEATHER ALMANAC - JANUARY 24, 2013
[ Next Day → ]
[ °C ]   °F
Weather ElementAverageHighLow
Temperature71 °F73.4 °F (10:41 am)66.2 °F (1:44 am)
Dewpoint67.4 °F69.8 °F (12:45 pm)64.4 °F (1:44 am)
Humidity88.4 %100 % (2:46 am)78 % (5:48 pm)
Barometer30.17 in30.22 in (9:42 am)30.12 in (2:42 pm)
Wind Speed5.7 mph8.1 mph (8:50 am)
Weather ElementAverage
Visibility5.8 mi
Wind DirectionSE (137.6 °)

Weather ElementTotal
Precipitation---
Cooling Degree Days4.8 (Base 65)
Growing Degree Days19.8 (Base 50)
Averaged from 25 records on January 24, 2013
WEATHER CONDITIONS BREAKOUT
WIND DIRECTION BREAKOUT
WEATHER BY HOUR - JANUARY 24, 2013
[ °C ]   °F
Local TimeTemperatureDewpointHumidityBarometerVisibilityWind DirectionWind SpeedGust SpeedPrecipitationEventsConditions
1:44 AM66.2 °F64.4 °F94 %30.17 in6.0 miNW (310°)5.8 mphRainLight Rain
2:46 AM66.2 °F66.2 °F100 %30.14 in6.0 miSW (230°)5.8 mphRainLight Rain
3:45 AM66.2 °F66.2 °F100 %30.15 in6.0 miWNW (300°)5.8 mphRainLight Rain
4:44 AM66.2 °F66.2 °F100 %30.15 in6.0 miNNW (330°)5.8 mphRainLight Rain
5:43 AM66.2 °F66.2 °F100 %30.16 in6.0 miCalmOvercast
6:42 AM68.0 °F66.2 °F94 %30.17 in6.0 miNW (320°)5.8 mphMostly Cloudy
7:45 AM69.8 °F68.0 °F94 %30.18 in6.0 miNW (310°)5.8 mphMostly Cloudy
8:50 AM71.6 °F68.0 °F88 %30.21 in6.0 miNorth (360°)8.1 mphMostly Cloudy
9:42 AM71.6 °F68.0 °F88 %30.22 in6.0 miNorth (360°)3.5 mphOvercast
10:41 AM73.4 °F68.0 °F83 %30.21 in6.0 miNNE (20°)8.1 mphOvercast
11:43 AM71.6 °F68.0 °F88 %30.21 in6.0 miNE (50°)8.1 mphOvercast
12:10 PM69.8 °F68.0 °F94 %30.19 in3.0 miNE (40°)3.5 mphRainLight Rain
12:45 PM71.6 °F69.8 °F94 %30.17 in4.0 miNE (50°)4.6 mphRainLight Rain
1:14 PM73.4 °F69.8 °F88 %30.14 in6.0 miNNE (30°)5.8 mphOvercast
1:42 PM73.4 °F68.0 °F83 %30.14 in6.0 miNE (50°)5.8 mphOvercast
2:42 PM71.6 °F69.8 °F94 %30.12 in6.0 miNNE (20°)4.6 mphRainLight Rain
3:43 PM73.4 °F69.8 °F88 %30.13 in6.0 miNNE (30°)5.8 mphMostly Cloudy
4:42 PM73.4 °F68.0 °F83 %30.15 in6.0 miNNE (20°)6.9 mphOvercast
5:48 PM73.4 °F66.2 °F78 %30.15 in6.0 miNorth (360°)3.5 mphOvercast
6:43 PM73.4 °F66.2 °F78 %30.17 in6.0 miNNE (30°)8.1 mphOvercast
7:42 PM73.4 °F66.2 °F78 %30.19 in6.0 miNE (40°)5.8 mphMostly Cloudy
8:41 PM71.6 °F68.0 °F88 %30.19 in6.0 miNorth (10°)5.8 mphMostly Cloudy
9:45 PM73.4 °F66.2 °F78 %30.18 in6.0 miNE (50°)6.9 mphMostly Cloudy
10:47 PM73.4 °F66.2 °F78 %30.18 in6.0 miENE (60°)5.8 mphMostly Cloudy
11:49 PM73.4 °F66.2 °F78 %30.16 in7.0 miENE (60°)5.8 mphScattered Clouds
Hourly data recorded from MMUN, located miles away from Cancun, Quintana Roo







STORIES FROM OUR PARTNERS